"""""""Sample Date""""","""""Sample Time""""","""""Sensor Name""""","""""Sensor Type""""","""""Sensor S/N""""","""""Statistics""""","""""Loc Chg""""","""""Location""""","""""Manifold""""","""""Laser OK""""","""""Flow OK""""","""""<5% Coinc.""""","""""Sample Valid""""","""""Sample Interval""""","""""Volume Units""""","""""Sample Volume""""","""""Number Channels""""","""""Size 1""""","""""Counts 1""""","""""Size 2""""","""""Counts 2""""","""""Size 3""""","""""Counts 3""""","""""Size 4""""","""""Counts 4""""","""""Size 5""""","""""Counts 5""""","""""Size 6""""","""""Counts 6""""","""""Number Analog""""","""""Name 1""""","""""Units 1""""","""""Avg 1""""","""""Min 1 """"","""""Max 1""""","""""Name 2""""","""""Units 2""""","""""Avg 2""""","""""Min 2 """"","""""Max 2""""","""""Name 3""""","""""Units 3""""","""""Avg 3""""","""""Min 3 """"","""""Max 3""""","""""Name 4""""","""""Units 4""""","""""Avg 4""""","""""Min 4 """"","""""Max 4""""","""""Name 5""""","""""Units 5""""","""""Avg 5""""","""""Min 5 """"","""""Max 5""""","""""Name 6""""","""""Units 6""""","""""Avg 6""""","""""Min 6 """"","""""Max 6"""""""
"""2005/01/14",0:00:52,"""""Lasair TWO""""","""""LasairII-110""""",36043,"""""""""",.,"""""RICO""""",0,1,1,0,0,0:01:00,CM,0.02832,6,0.1,533057,0.2,2888,0.3,0,0.5,0,1,0,5,0,"0""",,,,,,,,,,,,,,,,,,,,,,,,,,,,,,
"""2005/01/14",0:01:52,"""""Lasair TWO""""","""""LasairII-110""""",36043,"""""""""",.,"""""RICO""""",0,1,1,0,0,0:01:00,CM,0.02831,6,0.1,925759,0.2,2009,0.3,0,0.5,0,1,0,5,0,"0""",,,,,,,,,,,,,,,,,,,,,,,,,,,,,,
"""2005/01/14",0:02:52,"""""Lasair TWO""""","""""LasairII-110""""",36043,"""""""""",.,"""""RICO""""",0,1,1,0,0,0:01:00,CM,0.02832,6,0.1,3555722,0.2,1839,0.3,0,0.5,0,1,0,5,0,"0""",,,,,,,,,,,,,,,,,,,,,,,,,,,,,,
"""2005/01/14",0:03:52,"""""Lasair TWO""""","""""LasairII-110""""",36043,"""""""""",.,"""""RICO""""",0,1,1,0,0,0:01:00,CM,0.02831,6,0.1,3235188,0.2,1647,0.3,0,0.5,0,1,0,5,0,"0""",,,,,,,,,,,,,,,,,,,,,,,,,,,,,,
"""2005/01/14",0:04:52,"""""Lasair TWO""""","""""LasairII-110""""",36043,"""""""""",.,"""""RICO""""",0,1,1,0,0,0:01:00,CM,0.02832,6,0.1,2936145,0.2,1382,0.3,0,0.5,0,1,0,5,0,"0""",,,,,,,,,,,,,,,,,,,,,,,,,,,,,,
"""2005/01/14",0:05:52,"""""Lasair TWO""""","""""LasairII-110""""",36043,"""""""""",.,"""""RICO""""",0,1,1,0,0,0:01:00,CM,0.02832,6,0.1,2888105,0.2,1396,0.3,0,0.5,0,1,0,5,0,"0""",,,,,,,,,,,,,,,,,,,,,,,,,,,,,,
"""2005/01/14",0:06:52,"""""Lasair TWO""""","""""LasairII-110""""",36043,"""""""""",.,"""""RICO""""",0,1,1,0,0,0:01:00,CM,0.02832,6,0.1,3222259,0.2,1445,0.3,0,0.5,0,1,0,5,0,"0""",,,,,,,,,,,,,,,,,,,,,,,,,,,,,,
"""2005/01/14",0:07:52,"""""Lasair TWO""""","""""LasairII-110""""",36043,"""""""""",.,"""""RICO""""",0,1,1,0,0,0:01:00,CM,0.02831,6,0.1,1486359,0.2,1515,0.3,0,0.5,0,1,0,5,0,"0""",,,,,,,,,,,,,,,,,,,,,,,,,,,,,,
"""2005/01/14",0:08:52,"""""Lasair TWO""""","""""LasairII-110""""",36043,"""""""""",.,"""""RICO""""",0,1,1,0,0,0:01:00,CM,0.02832,6,0.1,475006,0.2,1496,0.3,0,0.5,0,1,0,5,0,"0""",,,,,,,,,,,,,,,,,,,,,,,,,,,,,,
"""2005/01/14",0:09:52,"""""Lasair TWO""""","""""LasairII-110""""",36043,"""""""""",.,"""""RICO""""",0,1,1,0,0,0:01:00,CM,0.02832,6,0.1,498026,0.2,2433,0.3,0,0.5,0,1,0,5,0,"0""",,,,,,,,,,,,,,,,,,,,,,,,,,,,,,
"""2005/01/14",0:10:52,"""""Lasair TWO""""","""""LasairII-110""""",36043,"""""""""",.,"""""RICO""""",0,1,1,0,0,0:01:00,CM,0.02832,6,0.1,674771,0.2,2482,0.3,0,0.5,0,1,0,5,0,"0""",,,,,,,,,,,,,,,,,,,,,,,,,,,,,,
"""2005/01/14",0:11:52,"""""Lasair TWO""""","""""LasairII-110""""",36043,"""""""""",.,"""""RICO""""",0,1,1,0,0,0:01:00,CM,0.02832,6,0.1,789090,0.2,2151,0.3,0,0.5,0,1,0,5,0,"0""",,,,,,,,,,,,,,,,,,,,,,,,,,,,,,
"""2005/01/14",0:12:52,"""""Lasair TWO""""","""""LasairII-110""""",36043,"""""""""",.,"""""RICO""""",0,1,1,0,0,0:01:00,CM,0.0283,6,0.1,882233,0.2,3319,0.3,0,0.5,0,1,0,5,0,"0""",,,,,,,,,,,,,,,,,,,,,,,,,,,,,,
"""2005/01/14",0:13:52,"""""Lasair TWO""""","""""LasairII-110""""",36043,"""""""""",.,"""""RICO""""",0,1,1,0,0,0:01:00,CM,0.02832,6,0.1,911151,0.2,3200,0.3,0,0.5,0,1,0,5,0,"0""",,,,,,,,,,,,,,,,,,,,,,,,,,,,,,
"""2005/01/14",0:14:52,"""""Lasair TWO""""","""""LasairII-110""""",36043,"""""""""",.,"""""RICO""""",0,1,1,0,0,0:01:00,CM,0.0283,6,0.1,1057985,0.2,2654,0.3,0,0.5,0,1,0,5,0,"0""",,,,,,,,,,,,,,,,,,,,,,,,,,,,,,
"""2005/01/14",0:15:52,"""""Lasair TWO""""","""""LasairII-110""""",36043,"""""""""",.,"""""RICO""""",0,1,1,0,0,0:01:00,CM,0.02832,6,0.1,1255754,0.2,2190,0.3,0,0.5,0,1,0,5,0,"0"""
"""2005/01/14",0:16:52,"""""Lasair TWO""""","""""LasairII-110""""",36043,"""""""""",.,"""""RICO""""",0,1,1,0,0,0:01:00,CM,0.02831,6,0.1,1682550,0.2,2005,0.3,0,0.5,0,1,0,5,0,"0"""
"""2005/01/14",0:17:52,"""""Lasair TWO""""","""""LasairII-110""""",36043,"""""""""",.,"""""RICO""""",0,1,1,0,0,0:01:00,CM,0.02832,6,0.1,1927372,0.2,1853,0.3,0,0.5,0,1,0,5,0,"0"""
"""2005/01/14",0:18:52,"""""Lasair TWO""""","""""LasairII-110""""",36043,"""""""""",.,"""""RICO""""",0,1,1,0,0,0:01:00,CM,0.02832,6,0.1,2147375,0.2,1894,0.3,0,0.5,0,1,0,5,0,"0"""
"""2005/01/14",0:19:52,"""""Lasair TWO""""","""""LasairII-110""""",36043,"""""""""",.,"""""RICO""""",0,1,1,0,0,0:01:00,CM,0.02832,6,0.1,2172955,0.2,1847,0.3,0,0.5,0,1,0,5,0,"0"""
"""2005/01/14",0:20:52,"""""Lasair TWO""""","""""LasairII-110""""",36043,"""""""""",.,"""""RICO""""",0,1,1,0,0,0:01:00,CM,0.02832,6,0.1,2088741,0.2,1624,0.3,0,0.5,0,1,0,5,0,"0"""
"""2005/01/14",0:21:52,"""""Lasair TWO""""","""""LasairII-110""""",36043,"""""""""",.,"""""RICO""""",0,1,1,0,0,0:01:00,CM,0.02832,6,0.1,1916542,0.2,1743,0.3,0,0.5,0,1,0,5,0,"0"""
"""2005/01/14",0:22:52,"""""Lasair TWO""""","""""LasairII-110""""",36043,"""""""""",.,"""""RICO""""",0,1,1,0,0,0:01:00,CM,0.02832,6,0.1,1896593,0.2,1636,0.3,0,0.5,0,1,0,5,0,"0"""
"""2005/01/14",0:23:52,"""""Lasair TWO""""","""""LasairII-110""""",36043,"""""""""",.,"""""RICO""""",0,1,1,0,0,0:01:00,CM,0.02831,6,0.1,2080726,0.2,1726,0.3,0,0.5,0,1,0,5,0,"0"""
"""2005/01/14",0:24:52,"""""Lasair TWO""""","""""LasairII-110""""",36043,"""""""""",.,"""""RICO""""",0,1,1,0,0,0:01:00,CM,0.02832,6,0.1,2169363,0.2,1857,0.3,0,0.5,0,1,0,5,0,"0"""
"""2005/01/14",0:25:52,"""""Lasair TWO""""","""""LasairII-110""""",36043,"""""""""",.,"""""RICO""""",0,1,1,0,0,0:01:00,CM,0.02832,6,0.1,2225701,0.2,1949,0.3,0,0.5,0,1,0,5,0,"0"""
"""2005/01/14",0:26:52,"""""Lasair TWO""""","""""LasairII-110""""",36043,"""""""""",.,"""""RICO""""",0,1,1,0,0,0:01:00,CM,0.02831,6,0.1,2245477,0.2,2078,0.3,0,0.5,0,1,0,5,0,"0"""
"""2005/01/14",0:27:52,"""""Lasair TWO""""","""""LasairII-110""""",36043,"""""""""",.,"""""RICO""""",0,1,1,0,0,0:01:00,CM,0.02831,6,0.1,2239477,0.2,2017,0.3,0,0.5,0,1,0,5,0,"0"""
"""2005/01/14",0:28:52,"""""Lasair TWO""""","""""LasairII-110""""",36043,"""""""""",.,"""""RICO""""",0,1,1,0,0,0:01:00,CM,0.02833,6,0.1,2229726,0.2,1920,0.3,0,0.5,0,1,0,5,0,"0"""
"""2005/01/14",0:29:52,"""""Lasair TWO""""","""""LasairII-110""""",36043,"""""""""",.,"""""RICO""""",0,1,1,0,0,0:01:00,CM,0.02831,6,0.1,2207156,0.2,1976,0.3,0,0.5,0,1,0,5,0,"0"""
"""2005/01/14",0:30:52,"""""Lasair TWO""""","""""LasairII-110""""",36043,"""""""""",.,"""""RICO""""",0,1,1,0,0,0:01:00,CM,0.02832,6,0.1,2211140,0.2,2093,0.3,0,0.5,0,1,0,5,0,"0"""
"""2005/01/14",0:31:52,"""""Lasair TWO""""","""""LasairII-110""""",36043,"""""""""",.,"""""RICO""""",0,1,0,0,0,0:01:00,CM,0.02832,6,0.1,2187014,0.2,2025,0.3,0,0.5,0,1,0,5,0,"0"""
"""2005/01/14",0:32:52,"""""Lasair TWO""""","""""LasairII-110""""",36043,"""""""""",.,"""""RICO""""",0,1,1,0,0,0:01:00,CM,0.02832,6,0.1,2165406,0.2,1936,0.3,0,0.5,0,1,0,5,0,"0"""
"""2005/01/14",0:33:52,"""""Lasair TWO""""","""""LasairII-110""""",36043,"""""""""",.,"""""RICO""""",0,1,1,0,0,0:01:00,CM,0.02831,6,0.1,2180892,0.2,1906,0.3,0,0.5,0,1,0,5,0,"0"""
"""2005/01/14",0:34:52,"""""Lasair TWO""""","""""LasairII-110""""",36043,"""""""""",.,"""""RICO""""",0,1,1,0,0,0:01:00,CM,0.02832,6,0.1,2192828,0.2,1748,0.3,0,0.5,0,1,0,5,0,"0"""
"""2005/01/14",0:35:52,"""""Lasair TWO""""","""""LasairII-110""""",36043,"""""""""",.,"""""RICO""""",0,1,1,0,0,0:01:00,CM,0.02832,6,0.1,2198477,0.2,1905,0.3,0,0.5,0,1,0,5,0,"0"""
"""2005/01/14",0:36:52,"""""Lasair TWO""""","""""LasairII-110""""",36043,"""""""""",.,"""""RICO""""",0,1,1,0,0,0:01:00,CM,0.02832,6,0.1,2226510,0.2,1771,0.3,0,0.5,0,1,0,5,0,"0"""
"""2005/01/14",0:37:52,"""""Lasair TWO""""","""""LasairII-110""""",36043,"""""""""",.,"""""RICO""""",0,1,1,0,0,0:01:00,CM,0.02831,6,0.1,2236819,0.2,1722,0.3,0,0.5,0,1,0,5,0,"0"""
"""2005/01/14",0:38:52,"""""Lasair TWO""""","""""LasairII-110""""",36043,"""""""""",.,"""""RICO""""",0,1,1,0,0,0:01:00,CM,0.02832,6,0.1,2247143,0.2,1728,0.3,0,0.5,0,1,0,5,0,"0"""
"""2005/01/14",0:39:52,"""""Lasair TWO""""","""""LasairII-110""""",36043,"""""""""",.,"""""RICO""""",0,1,1,0,0,0:01:00,CM,0.02831,6,0.1,2257963,0.2,1770,0.3,0,0.5,0,1,0,5,0,"0"""
"""2005/01/14",0:40:52,"""""Lasair TWO""""","""""LasairII-110""""",36043,"""""""""",.,"""""RICO""""",0,1,1,0,0,0:01:00,CM,0.02831,6,0.1,2270270,0.2,1862,0.3,0,0.5,0,1,0,5,0,"0"""
"""2005/01/14",0:41:52,"""""Lasair TWO""""","""""LasairII-110""""",36043,"""""""""",.,"""""RICO""""",0,1,1,0,0,0:01:00,CM,0.02832,6,0.1,2243905,0.2,1973,0.3,0,0.5,0,1,0,5,0,"0"""
"""2005/01/14",0:42:52,"""""Lasair TWO""""","""""LasairII-110""""",36043,"""""""""",.,"""""RICO""""",0,1,1,0,0,0:01:00,CM,0.02832,6,0.1,2205164,0.2,2041,0.3,0,0.5,0,1,0,5,0,"0"""
"""2005/01/14",0:43:52,"""""Lasair TWO""""","""""LasairII-110""""",36043,"""""""""",.,"""""RICO""""",0,1,1,0,0,0:01:00,CM,0.02832,6,0.1,2157296,0.2,2194,0.3,0,0.5,0,1,0,5,0,"0"""
"""2005/01/14",0:44:52,"""""Lasair TWO""""","""""LasairII-110""""",36043,"""""""""",.,"""""RICO""""",0,1,1,0,0,0:01:00,CM,0.02832,6,0.1,2162529,0.2,2048,0.3,0,0.5,0,1,0,5,0,"0"""
"""2005/01/14",0:45:52,"""""Lasair TWO""""","""""LasairII-110""""",36043,"""""""""",.,"""""RICO""""",0,1,1,0,0,0:01:00,CM,0.02831,6,0.1,2185533,0.2,1705,0.3,0,0.5,0,1,0,5,0,"0"""
"""2005/01/14",0:46:52,"""""Lasair TWO""""","""""LasairII-110""""",36043,"""""""""",.,"""""RICO""""",0,1,1,0,0,0:01:00,CM,0.02833,6,0.1,2092556,0.2,1568,0.3,0,0.5,0,1,0,5,0,"0"""
"""2005/01/14",0:47:52,"""""Lasair TWO""""","""""LasairII-110""""",36043,"""""""""",.,"""""RICO""""",0,1,1,0,0,0:01:00,CM,0.02831,6,0.1,1842045,0.2,1608,0.3,0,0.5,0,1,0,5,0,"0"""
"""2005/01/14",0:48:52,"""""Lasair TWO""""","""""LasairII-110""""",36043,"""""""""",.,"""""RICO""""",0,1,1,0,0,0:01:00,CM,0.02832,6,0.1,1662776,0.2,1730,0.3,0,0.5,0,1,0,5,0,"0"""
"""2005/01/14",0:49:52,"""""Lasair TWO""""","""""LasairII-110""""",36043,"""""""""",.,"""""RICO""""",0,1,1,0,0,0:01:00,CM,0.0283,6,0.1,1825430,0.2,1839,0.3,0,0.5,0,1,0,5,0,"0"""
"""2005/01/14",0:50:52,"""""Lasair TWO""""","""""LasairII-110""""",36043,"""""""""",.,"""""RICO""""",0,1,1,0,0,0:01:00,CM,0.02832,6,0.1,2137298,0.2,1858,0.3,0,0.5,0,1,0,5,0,"0"""
"""2005/01/14",0:51:52,"""""Lasair TWO""""","""""LasairII-110""""",36043,"""""""""",.,"""""RICO""""",0,1,1,0,0,0:01:00,CM,0.02832,6,0.1,2140355,0.2,1773,0.3,0,0.5,0,1,0,5,0,"0"""
"""2005/01/14",0:52:52,"""""Lasair TWO""""","""""LasairII-110""""",36043,"""""""""",.,"""""RICO""""",0,1,1,0,0,0:01:00,CM,0.02831,6,0.1,1983693,0.2,1665,0.3,0,0.5,0,1,0,5,0,"0"""
"""2005/01/14",0:53:52,"""""Lasair TWO""""","""""LasairII-110""""",36043,"""""""""",.,"""""RICO""""",0,1,1,0,0,0:01:00,CM,0.02832,6,0.1,1697551,0.2,1636,0.3,0,0.5,0,1,0,5,0,"0"""
"""2005/01/14",0:54:52,"""""Lasair TWO""""","""""LasairII-110""""",36043,"""""""""",.,"""""RICO""""",0,1,1,0,0,0:01:00,CM,0.02832,6,0.1,1324646,0.2,1442,0.3,0,0.5,0,1,0,5,0,"0"""
"""2005/01/14",0:55:52,"""""Lasair TWO""""","""""LasairII-110""""",36043,"""""""""",.,"""""RICO""""",0,1,1,0,0,0:01:00,CM,0.02831,6,0.1,1228532,0.2,1538,0.3,0,0.5,0,1,0,5,0,"0"""
"""2005/01/14",0:56:52,"""""Lasair TWO""""","""""LasairII-110""""",36043,"""""""""",.,"""""RICO""""",0,1,1,0,0,0:01:00,CM,0.02833,6,0.1,1290067,0.2,1487,0.3,0,0.5,0,1,0,5,0,"0"""
"""2005/01/14",0:57:52,"""""Lasair TWO""""","""""LasairII-110""""",36043,"""""""""",.,"""""RICO""""",0,1,1,0,0,0:01:00,CM,0.0283,6,0.1,1659950,0.2,1618,0.3,0,0.5,0,1,0,5,0,"0"""
"""2005/01/14",0:58:52,"""""Lasair TWO""""","""""LasairII-110""""",36043,"""""""""",.,"""""RICO""""",0,1,1,0,0,0:01:00,CM,0.02831,6,0.1,1957958,0.2,1810,0.3,0,0.5,0,1,0,5,0,"0"""
"""2005/01/14",0:59:52,"""""Lasair TWO""""","""""LasairII-110""""",36043,"""""""""",.,"""""RICO""""",0,1,1,0,0,0:01:00,CM,0.02832,6,0.1,2102965,0.2,1863,0.3,0,0.5,0,1,0,5,0,"0"""
"""2005/01/14",1:00:52,"""""Lasair TWO""""","""""LasairII-110""""",36043,"""""""""",.,"""""RICO""""",0,1,1,0,0,0:01:00,CM,0.02832,6,0.1,2016130,0.2,1938,0.3,0,0.5,0,1,0,5,0,"0"""
"""2005/01/14",1:01:52,"""""Lasair TWO""""","""""LasairII-110""""",36043,"""""""""",.,"""""RICO""""",0,1,1,0,0,0:01:00,CM,0.02831,6,0.1,1971432,0.2,1843,0.3,0,0.5,0,1,0,5,0,"0"""
"""2005/01/14",1:02:52,"""""Lasair TWO""""","""""LasairII-110""""",36043,"""""""""",.,"""""RICO""""",0,1,1,0,0,0:01:00,CM,0.02832,6,0.1,2099712,0.2,1756,0.3,0,0.5,0,1,0,5,0,"0"""
"""2005/01/14",1:03:52,"""""Lasair TWO""""","""""LasairII-110""""",36043,"""""""""",.,"""""RICO""""",0,1,1,0,0,0:01:00,CM,0.02832,6,0.1,2101280,0.2,1929,0.3,0,0.5,0,1,0,5,0,"0"""
"""2005/01/14",1:04:52,"""""Lasair TWO""""","""""LasairII-110""""",36043,"""""""""",.,"""""RICO""""",0,1,1,0,0,0:01:00,CM,0.02831,6,0.1,2116648,0.2,2090,0.3,0,0.5,0,1,0,5,0,"0"""
"""2005/01/14",1:05:52,"""""Lasair TWO""""","""""LasairII-110""""",36043,"""""""""",.,"""""RICO""""",0,1,1,0,0,0:01:00,CM,0.02832,6,0.1,2143802,0.2,2113,0.3,0,0.5,0,1,0,5,0,"0"""
"""2005/01/14",1:06:52,"""""Lasair TWO""""","""""LasairII-110""""",36043,"""""""""",.,"""""RICO""""",0,1,1,0,0,0:01:00,CM,0.02832,6,0.1,2192613,0.2,2300,0.3,0,0.5,0,1,0,5,0,"0"""
"""2005/01/14",1:07:52,"""""Lasair TWO""""","""""LasairII-110""""",36043,"""""""""",.,"""""RICO""""",0,1,1,0,0,0:01:00,CM,0.02832,6,0.1,2204240,0.2,1995,0.3,0,0.5,0,1,0,5,0,"0"""
"""2005/01/14",1:08:52,"""""Lasair TWO""""","""""LasairII-110""""",36043,"""""""""",.,"""""RICO""""",0,1,1,0,0,0:01:00,CM,0.02832,6,0.1,2205179,0.2,1887,0.3,0,0.5,0,1,0,5,0,"0"""
"""2005/01/14",1:09:52,"""""Lasair TWO""""","""""LasairII-110""""",36043,"""""""""",.,"""""RICO""""",0,1,1,0,0,0:01:00,CM,0.02832,6,0.1,2209502,0.2,1854,0.3,0,0.5,0,1,0,5,0,"0"""
"""2005/01/14",1:10:52,"""""Lasair TWO""""","""""LasairII-110""""",36043,"""""""""",.,"""""RICO""""",0,1,1,0,0,0:01:00,CM,0.02832,6,0.1,2169934,0.2,1725,0.3,0,0.5,0,1,0,5,0,"0"""
"""2005/01/14",1:11:52,"""""Lasair TWO""""","""""LasairII-110""""",36043,"""""""""",.,"""""RICO""""",0,1,1,0,0,0:01:00,CM,0.02831,6,0.1,2140837,0.2,1550,0.3,0,0.5,0,1,0,5,0,"0"""
"""2005/01/14",1:12:52,"""""Lasair TWO""""","""""LasairII-110""""",36043,"""""""""",.,"""""RICO""""",0,1,1,0,0,0:01:00,CM,0.02831,6,0.1,2206241,0.2,1735,0.3,0,0.5,0,1,0,5,0,"0"""
"""2005/01/14",1:13:52,"""""Lasair TWO""""","""""LasairII-110""""",36043,"""""""""",.,"""""RICO""""",0,1,1,0,0,0:01:00,CM,0.02832,6,0.1,2228587,0.2,1706,0.3,0,0.5,0,1,0,5,0,"0"""
"""2005/01/14",1:14:52,"""""Lasair TWO""""","""""LasairII-110""""",36043,"""""""""",.,"""""RICO""""",0,1,1,0,0,0:01:00,CM,0.02832,6,0.1,2139830,0.2,1702,0.3,0,0.5,0,1,0,5,0,"0"""
"""2005/01/14",1:15:52,"""""Lasair TWO""""","""""LasairII-110""""",36043,"""""""""",.,"""""RICO""""",0,1,1,0,0,0:01:00,CM,0.02831,6,0.1,2023568,0.2,1570,0.3,0,0.5,0,1,0,5,0,"0"""
"""2005/01/14",1:16:52,"""""Lasair TWO""""","""""LasairII-110""""",36043,"""""""""",.,"""""RICO""""",0,1,1,0,0,0:01:00,CM,0.02831,6,0.1,2059049,0.2,1812,0.3,0,0.5,0,1,0,5,0,"0"""
"""2005/01/14",1:17:52,"""""Lasair TWO""""","""""LasairII-110""""",36043,"""""""""",.,"""""RICO""""",0,1,1,0,0,0:01:00,CM,0.02832,6,0.1,2199235,0.2,1959,0.3,0,0.5,0,1,0,5,0,"0"""
"""2005/01/14",1:18:52,"""""Lasair TWO""""","""""LasairII-110""""",36043,"""""""""",.,"""""RICO""""",0,1,1,0,0,0:01:00,CM,0.02831,6,0.1,2223811,0.2,2063,0.3,0,0.5,0,1,0,5,0,"0"""
"""2005/01/14",1:19:52,"""""Lasair TWO""""","""""LasairII-110""""",36043,"""""""""",.,"""""RICO""""",0,1,1,0,0,0:01:00,CM,0.02832,6,0.1,2216387,0.2,1979,0.3,0,0.5,0,1,0,5,0,"0"""
"""2005/01/14",1:20:52,"""""Lasair TWO""""","""""LasairII-110""""",36043,"""""""""",.,"""""RICO""""",0,1,1,0,0,0:01:00,CM,0.02833,6,0.1,2105398,0.2,1594,0.3,0,0.5,0,1,0,5,0,"0"""
"""2005/01/14",1:21:52,"""""Lasair TWO""""","""""LasairII-110""""",36043,"""""""""",.,"""""RICO""""",0,1,1,0,0,0:01:00,CM,0.02831,6,0.1,1980368,0.2,1650,0.3,0,0.5,0,1,0,5,0,"0"""
"""2005/01/14",1:22:52,"""""Lasair TWO""""","""""LasairII-110""""",36043,"""""""""",.,"""""RICO""""",0,1,1,0,0,0:01:00,CM,0.02831,6,0.1,1885860,0.2,1812,0.3,0,0.5,0,1,0,5,0,"0"""
"""2005/01/14",1:23:52,"""""Lasair TWO""""","""""LasairII-110""""",36043,"""""""""",.,"""""RICO""""",0,1,1,0,0,0:01:00,CM,0.02832,6,0.1,1995330,0.2,2108,0.3,0,0.5,0,1,0,5,0,"0"""
"""2005/01/14",1:24:52,"""""Lasair TWO""""","""""LasairII-110""""",36043,"""""""""",.,"""""RICO""""",0,1,1,0,0,0:01:00,CM,0.02832,6,0.1,2091238,0.2,2110,0.3,0,0.5,0,1,0,5,0,"0"""
"""2005/01/14",1:25:52,"""""Lasair TWO""""","""""LasairII-110""""",36043,"""""""""",.,"""""RICO""""",0,1,1,0,0,0:01:00,CM,0.02832,6,0.1,2120901,0.2,2058,0.3,0,0.5,0,1,0,5,0,"0"""
"""2005/01/14",1:26:52,"""""Lasair TWO""""","""""LasairII-110""""",36043,"""""""""",.,"""""RICO""""",0,1,1,0,0,0:01:00,CM,0.02833,6,0.1,2116718,0.2,1941,0.3,0,0.5,0,1,0,5,0,"0"""
"""2005/01/14",1:27:52,"""""Lasair TWO""""","""""LasairII-110""""",36043,"""""""""",.,"""""RICO""""",0,1,1,0,0,0:01:00,CM,0.02832,6,0.1,2118581,0.2,1833,0.3,0,0.5,0,1,0,5,0,"0"""
"""2005/01/14",1:28:52,"""""Lasair TWO""""","""""LasairII-110""""",36043,"""""""""",.,"""""RICO""""",0,1,1,0,0,0:01:00,CM,0.02833,6,0.1,2137784,0.2,1773,0.3,0,0.5,0,1,0,5,0,"0"""
"""2005/01/14",1:29:52,"""""Lasair TWO""""","""""LasairII-110""""",36043,"""""""""",.,"""""RICO""""",0,1,1,0,0,0:01:00,CM,0.02831,6,0.1,2170858,0.2,1752,0.3,0,0.5,0,1,0,5,0,"0"""
"""2005/01/14",1:30:52,"""""Lasair TWO""""","""""LasairII-110""""",36043,"""""""""",.,"""""RICO""""",0,1,1,0,0,0:01:00,CM,0.02832,6,0.1,2190014,0.2,1960,0.3,0,0.5,0,1,0,5,0,"0"""
"""2005/01/14",1:31:52,"""""Lasair TWO""""","""""LasairII-110""""",36043,"""""""""",.,"""""RICO""""",0,1,1,0,0,0:01:00,CM,0.02832,6,0.1,2156927,0.2,2020,0.3,0,0.5,0,1,0,5,0,"0"""
"""2005/01/14",1:32:52,"""""Lasair TWO""""","""""LasairII-110""""",36043,"""""""""",.,"""""RICO""""",0,1,1,0,0,0:01:00,CM,0.02831,6,0.1,2092531,0.2,2148,0.3,0,0.5,0,1,0,5,0,"0"""
"""2005/01/14",1:33:52,"""""Lasair TWO""""","""""LasairII-110""""",36043,"""""""""",.,"""""RICO""""",0,1,1,0,0,0:01:00,CM,0.02831,6,0.1,2013087,0.2,2359,0.3,0,0.5,0,1,0,5,0,"0"""
"""2005/01/14",1:34:52,"""""Lasair TWO""""","""""LasairII-110""""",36043,"""""""""",.,"""""RICO""""",0,1,1,0,0,0:01:00,CM,0.02832,6,0.1,2051451,0.2,2303,0.3,0,0.5,0,1,0,5,0,"0"""
"""2005/01/14",1:35:52,"""""Lasair TWO""""","""""LasairII-110""""",36043,"""""""""",.,"""""RICO""""",0,1,1,0,0,0:01:00,CM,0.02832,6,0.1,2095766,0.2,2305,0.3,0,0.5,0,1,0,5,0,"0"""
"""2005/01/14",1:36:52,"""""Lasair TWO""""","""""LasairII-110""""",36043,"""""""""",.,"""""RICO""""",0,1,1,0,0,0:01:00,CM,0.02832,6,0.1,2101473,0.2,1974,0.3,0,0.5,0,1,0,5,0,"0"""
"""2005/01/14",1:37:52,"""""Lasair TWO""""","""""LasairII-110""""",36043,"""""""""",.,"""""RICO""""",0,1,1,0,0,0:01:00,CM,0.02832,6,0.1,2098892,0.2,1794,0.3,0,0.5,0,1,0,5,0,"0"""
"""2005/01/14",1:38:52,"""""Lasair TWO""""","""""LasairII-110""""",36043,"""""""""",.,"""""RICO""""",0,1,1,0,0,0:01:00,CM,0.02831,6,0.1,2001226,0.2,1979,0.3,0,0.5,0,1,0,5,0,"0"""
"""2005/01/14",1:39:52,"""""Lasair TWO""""","""""LasairII-110""""",36043,"""""""""",.,"""""RICO""""",0,1,1,0,0,0:01:00,CM,0.02832,6,0.1,1791049,0.2,1878,0.3,0,0.5,0,1,0,5,0,"0"""
"""2005/01/14",1:40:52,"""""Lasair TWO""""","""""LasairII-110""""",36043,"""""""""",.,"""""RICO""""",0,1,1,0,0,0:01:00,CM,0.02832,6,0.1,1542737,0.2,2092,0.3,0,0.5,0,1,0,5,0,"0"""
"""2005/01/14",1:41:52,"""""Lasair TWO""""","""""LasairII-110""""",36043,"""""""""",.,"""""RICO""""",0,1,1,0,0,0:01:00,CM,0.02832,6,0.1,1677307,0.2,2005,0.3,0,0.5,0,1,0,5,0,"0"""
"""2005/01/14",1:42:52,"""""Lasair TWO""""","""""LasairII-110""""",36043,"""""""""",.,"""""RICO""""",0,1,1,0,0,0:01:00,CM,0.02832,6,0.1,1720445,0.2,1752,0.3,0,0.5,0,1,0,5,0,"0"""
"""2005/01/14",1:43:52,"""""Lasair TWO""""","""""LasairII-110""""",36043,"""""""""",.,"""""RICO""""",0,1,1,0,0,0:01:00,CM,0.02831,6,0.1,1581696,0.2,1630,0.3,0,0.5,0,1,0,5,0,"0"""
"""2005/01/14",1:44:52,"""""Lasair TWO""""","""""LasairII-110""""",36043,"""""""""",.,"""""RICO""""",0,1,1,0,0,0:01:00,CM,0.02832,6,0.1,1536783,0.2,1557,0.3,0,0.5,0,1,0,5,0,"0"""
"""2005/01/14",1:45:52,"""""Lasair TWO""""","""""LasairII-110""""",36043,"""""""""",.,"""""RICO""""",0,1,1,0,0,0:01:00,CM,0.02832,6,0.1,1935580,0.2,1591,0.3,0,0.5,0,1,0,5,0,"0"""
"""2005/01/14",1:46:52,"""""Lasair TWO""""","""""LasairII-110""""",36043,"""""""""",.,"""""RICO""""",0,1,1,0,0,0:01:00,CM,0.02831,6,0.1,2105427,0.2,1574,0.3,0,0.5,0,1,0,5,0,"0"""
"""2005/01/14",1:47:52,"""""Lasair TWO""""","""""LasairII-110""""",36043,"""""""""",.,"""""RICO""""",0,1,1,0,0,0:01:00,CM,0.02832,6,0.1,2130116,0.2,1639,0.3,0,0.5,0,1,0,5,0,"0"""
"""2005/01/14",1:48:52,"""""Lasair TWO""""","""""LasairII-110""""",36043,"""""""""",.,"""""RICO""""",0,1,1,0,0,0:01:00,CM,0.02832,6,0.1,2248544,0.2,1619,0.3,0,0.5,0,1,0,5,0,"0"""
"""2005/01/14",1:49:52,"""""Lasair TWO""""","""""LasairII-110""""",36043,"""""""""",.,"""""RICO""""",0,1,1,0,0,0:01:00,CM,0.02831,6,0.1,2203814,0.2,1816,0.3,0,0.5,0,1,0,5,0,"0"""
"""2005/01/14",1:50:52,"""""Lasair TWO""""","""""LasairII-110""""",36043,"""""""""",.,"""""RICO""""",0,1,1,0,0,0:01:00,CM,0.02832,6,0.1,2159197,0.2,1836,0.3,0,0.5,0,1,0,5,0,"0"""
"""2005/01/14",1:51:52,"""""Lasair TWO""""","""""LasairII-110""""",36043,"""""""""",.,"""""RICO""""",0,1,1,0,0,0:01:00,CM,0.02833,6,0.1,2240328,0.2,2004,0.3,0,0.5,0,1,0,5,0,"0"""
"""2005/01/14",1:52:52,"""""Lasair TWO""""","""""LasairII-110""""",36043,"""""""""",.,"""""RICO""""",0,1,1,0,0,0:01:00,CM,0.02831,6,0.1,2256235,0.2,2088,0.3,0,0.5,0,1,0,5,0,"0"""
"""2005/01/14",1:53:52,"""""Lasair TWO""""","""""LasairII-110""""",36043,"""""""""",.,"""""RICO""""",0,1,1,0,0,0:01:00,CM,0.02832,6,0.1,2196529,0.2,1926,0.3,0,0.5,0,1,0,5,0,"0"""
"""2005/01/14",1:54:52,"""""Lasair TWO""""","""""LasairII-110""""",36043,"""""""""",.,"""""RICO""""",0,1,1,0,0,0:01:00,CM,0.02832,6,0.1,2125410,0.2,1961,0.3,0,0.5,0,1,0,5,0,"0"""
"""2005/01/14",1:55:52,"""""Lasair TWO""""","""""LasairII-110""""",36043,"""""""""",.,"""""RICO""""",0,1,1,0,0,0:01:00,CM,0.02831,6,0.1,2020853,0.2,2487,0.3,0,0.5,0,1,0,5,0,"0"""
"""2005/01/14",1:56:52,"""""Lasair TWO""""","""""LasairII-110""""",36043,"""""""""",.,"""""RICO""""",0,1,1,0,0,0:01:00,CM,0.02831,6,0.1,1915455,0.2,2610,0.3,0,0.5,0,1,0,5,0,"0"""
"""2005/01/14",1:57:52,"""""Lasair TWO""""","""""LasairII-110""""",36043,"""""""""",.,"""""RICO""""",0,1,1,0,0,0:01:00,CM,0.02832,6,0.1,1965544,0.2,2564,0.3,0,0.5,0,1,0,5,0,"0"""
"""2005/01/14",1:58:52,"""""Lasair TWO""""","""""LasairII-110""""",36043,"""""""""",.,"""""RICO""""",0,1,1,0,0,0:01:00,CM,0.02831,6,0.1,2048728,0.2,2239,0.3,0,0.5,0,1,0,5,0,"0"""
"""2005/01/14",1:59:52,"""""Lasair TWO""""","""""LasairII-110""""",36043,"""""""""",.,"""""RICO""""",0,1,1,0,0,0:01:00,CM,0.02831,6,0.1,2105084,0.2,2032,0.3,0,0.5,0,1,0,5,0,"0"""
"""2005/01/14",2:00:52,"""""Lasair TWO""""","""""LasairII-110""""",36043,"""""""""",.,"""""RICO""""",0,1,1,0,0,0:01:00,CM,0.02832,6,0.1,2137032,0.2,1896,0.3,0,0.5,0,1,0,5,0,"0"""
"""2005/01/14",2:01:52,"""""Lasair TWO""""","""""LasairII-110""""",36043,"""""""""",.,"""""RICO""""",0,1,1,0,0,0:01:00,CM,0.02832,6,0.1,2089403,0.2,1701,0.3,0,0.5,0,1,0,5,0,"0"""
"""2005/01/14",2:02:52,"""""Lasair TWO""""","""""LasairII-110""""",36043,"""""""""",.,"""""RICO""""",0,1,1,0,0,0:01:00,CM,0.02832,6,0.1,2090889,0.2,1702,0.3,0,0.5,0,1,0,5,0,"0"""
"""2005/01/14",2:03:52,"""""Lasair TWO""""","""""LasairII-110""""",36043,"""""""""",.,"""""RICO""""",0,1,1,0,0,0:01:00,CM,0.02832,6,0.1,2115080,0.2,1660,0.3,0,0.5,0,1,0,5,0,"0"""